STARLINK-11557, 62837

Orbit data source: Space-Track

STARLINK-11557, 62837 is a payload satellite owned by SpaceX/Seattle (US) in LEO that was launched on Mon, 27 Jan 2025 UTC via an FALCON 9 launch vehicle from the Air Force Eastern Test Range (AFETR). Payload-class satellites include a variety of spacecraft equipped with specific instruments for various scientific and technological missions. These include communications satellites like Starlink; space stations such as the ISS; scientific satellites like the Hubble; Earth observation satellites from companies like Planet Labs, Umbra, and HawkEye 360; GPS; miniature CubeSats for education and research; and military/defense satellites.

Loading next visibility...
Identifier
62837, 2025-019J
Orbit
LEO
Country
Flag of USUS
Related business
Manufacturer
SpaceX/Seattle
Mission
Operational Commercial Communications
Bus & Motor
STARLINK V2MD, Unknown motor
Mass
960 kg wet, ~910 kg dry
Launch date (UTC)
2025-01-27 (2 years ago)
Launch vehicle
FALCON 9
Launch site
Air Force Eastern Test Range (AFETR)
Object type
Payload
Rocket body
Debris
Shape & HBR
Box + 2 Pan, 18.1 m
Radar Cross Section
36.964 m², Large (>1 m²)

Expand to show TLE details & history
Last TLE update: 14 hours ago

TLE from 14 hours ago
0 STARLINK-11557
1 62837U 25019J   26247.55737700  .00155250  00000-0  11744-2 0  9995
2 62837  42.9995 307.6792 0001656 278.5672  81.5008 15.71172675 92011
Epoch: 2026-09-04T13:22Z
TLE epoch observation values (Epoch: 2026-09-04T13:22:37.372Z)
Latitude
-0.00004°
Longitude
123.34395°
Altitude
355.151 km
Speed
7.698 km/s
True Right ascension
20h 30m 42s
True Declination
0° 00' 00"
Sunlit
Object was in full shadow at epoch
Visualization orbit readout
Latitude
Unknown
Longitude
Unknown
Altitude
Unknown
Speed
Unknown
Apparent Right ascension
Unknown
Apparent Declination
Unknown
Sunlit
N/A
Visualization observer readout
Local Sidereal Time
19:34:38
Azimuth
Unknown
Elevation
Unknown
Doppler factor
Unknown
Orbital elements
Apogee altitude
358.642 km
Perigee altitude
356.411 km
Semi-major axis
6,735.663 km
Eccentricity
0.00017
Inclination
42.9995°
RAAN
307.6792°
Arg. of periapsis
278.5672°
True anomaly
81.51957°
Mean anomaly
81.5008°
Eccentric anomaly
81.51018°
Mean motion
3.9262 °/min
Orbital period
91.69 mins
BSTAR
0.0011744
Loading maneuver chart data...
Computing Atmospheric mass density...
Loading historical data...
Loading historical data...
Loading historical data...
Loading historical data...
Loading historical data...
Loading historical data...
Loading historical data...

Documentation

Showing up to 5 results
|